Weather History for Laurinburg-Maxton, NC

Change the Weather History Date:

Monday, February 3, 2014

  Actual Average (KLBT) Record (KLBT)
Temperature  
Mean Temperature 57 °F 45 °F  
Max Temperature 71 °F 56 °F 73 °F (2003)
Min Temperature 43 °F 34 °F 25 °F (2000)
Degree Days  
Heating Degree Days 8 20  
Month to date heating degree days 62  
Since 1 July heating degree days 1781  
Cooling Degree Days 0 0  
Month to date cooling degree days 0  
Year to date cooling degree days 1  
Growing Degree Days 7 (Base 50)    
Moisture  
Dew Point 50 °F    
Average Humidity 90    
Maximum Humidity 100    
Minimum Humidity 63    
Precipitation  
Precipitation 0.00 in 0.08 in 0.42 in (2005)
Month to date precipitation 0.24  
Year to date precipitation 3.21  
Sea Level Pressure  
Sea Level Pressure 30.02 in    
Wind  
Wind Speed 7 mph (South)    
Max Wind Speed 21 mph    
Max Gust Speed 30 mph    
Visibility 7 miles    
Events Fog    
T = Trace of Precipitation, MM = Missing Value Source: NWS Daily Summary

Daily Weather History Graph

Daily Weather History Graph

Search for Another Location

Airport:

Trip Planner

Search our weather history database for the weather conditions in past years. The results will help you decide how hot, cold, wet, or windy it might be!

Date:

Astronomy

Feb. 03, 2014 Rise Set
Actual Time 7:14 AM EST 5:48 PM EST
Civil Twilight 6:47 AM EST 6:15 PM EST
Nautical Twilight 6:17 AM EST 6:45 PM EST
Astronomical Twilight 5:48 AM EST 7:14 PM EST
Moon 9:27 AM EST (2/3) 10:23 PM EST (2/3)
Length of Visible Light 11h 27m
Length of Day
10h 34m
Waxing Crescent, 19% of the Moon is Illuminated
Feb 3
Waxing Crescent
Feb 6
First Quarter
Feb 14
Full
Feb 22
Last Quarter
Mar 1
New

Hourly Weather History & Observations

Time (EST) Temp. Windchill Dew Point Humidity Pressure Visibility Wind Dir Wind Speed Gust Speed Precip Events Conditions
12:05 AM 43.0 °F - 43.0 °F 100% 30.04 in 3.0 mi Calm Calm - N/A   Clear
12:21 AM 44.1 °F 42.5 °F 44.1 °F 100% 30.03 in 1.2 mi East 3.5 mph - N/A   Clear
12:27 AM 44.1 °F - 44.1 °F 100% 30.03 in 0.5 mi Calm Calm - N/A Fog Fog
12:32 AM 44.1 °F 42.5 °F 44.1 °F 100% 30.03 in 1.0 mi East 3.5 mph - N/A   Clear
12:52 AM 44.1 °F - 44.1 °F 100% 30.02 in 1.0 mi Calm Calm - N/A   Clear
1:03 AM 43.0 °F 40.3 °F 43.0 °F 100% 30.02 in 2.0 mi SSE 4.6 mph - N/A   Partly Cloudy
1:17 AM 44.1 °F 40.8 °F 44.1 °F 100% 30.02 in 1.0 mi SSE 5.8 mph - N/A   Mist
1:24 AM 44.1 °F 41.5 °F 44.1 °F 100% 30.01 in 0.5 mi SSE 4.6 mph - N/A Fog Fog
1:42 AM 45.0 °F 41.8 °F 45.0 °F 100% 30.00 in 1.0 mi SSE 5.8 mph - N/A   Mist
1:47 AM 44.6 °F 42.2 °F 44.6 °F 100% 30.01 in 2.0 mi South 4.6 mph - N/A   Clear
1:52 AM 45.0 °F 42.6 °F 45.0 °F 100% 30.00 in 3.0 mi South 4.6 mph - N/A   Clear
2:02 AM 45.0 °F 42.6 °F 45.0 °F 100% 30.00 in 2.5 mi South 4.6 mph - N/A   Clear
2:09 AM 45.0 °F 41.8 °F 45.0 °F 100% 29.99 in 3.0 mi South 5.8 mph - N/A   Clear
2:52 AM 48.9 °F - 48.9 °F 100% 29.99 in 10.0 mi SSW 5.8 mph - N/A   Scattered Clouds
3:52 AM 50.0 °F - 48.9 °F 96% 29.98 in 10.0 mi SSW 4.6 mph - N/A   Overcast
4:52 AM 51.1 °F - 51.1 °F 100% 29.96 in 8.0 mi South 5.8 mph - N/A   Overcast
5:36 AM 54.0 °F - 54.0 °F 100% 29.95 in 8.0 mi SSW 11.5 mph - N/A   Overcast
5:52 AM 55.0 °F - 54.0 °F 96% 29.95 in 8.0 mi SSW 9.2 mph - N/A   Overcast
6:13 AM 55.0 °F - 55.0 °F 100% 29.95 in 6.0 mi SSW 11.5 mph - N/A   Overcast
6:52 AM 57.9 °F - 57.9 °F 100% 29.95 in 5.0 mi SSW 11.5 mph - N/A   Overcast
7:20 AM 61.0 °F - 60.1 °F 97% 29.94 in 7.0 mi SSW 16.1 mph - N/A   Overcast
7:52 AM 63.0 °F - 62.1 °F 97% 29.93 in 8.0 mi SSW 17.3 mph - N/A   Overcast
8:04 AM 63.0 °F - 62.1 °F 97% 29.94 in 9.0 mi SSW 15.0 mph 24.2 mph N/A   Overcast
8:52 AM 64.0 °F - 62.1 °F 93% 29.96 in 9.0 mi SSW 15.0 mph 26.5 mph N/A   Overcast
9:37 AM 66.0 °F - 63.0 °F 90% 29.98 in 10.0 mi SW 17.3 mph - N/A   Overcast
9:52 AM 66.0 °F - 63.0 °F 90% 29.99 in 10.0 mi WSW 13.8 mph 23.0 mph N/A   Overcast
10:52 AM 66.0 °F - 62.1 °F 87% 29.99 in 10.0 mi WSW 15.0 mph 23.0 mph N/A   Overcast
11:52 AM 66.9 °F - 62.1 °F 84% 29.99 in 10.0 mi WSW 13.8 mph - N/A   Overcast
12:52 PM 71.1 °F - 61.0 °F 70% 29.95 in 10.0 mi SW 18.4 mph 25.3 mph N/A   Scattered Clouds
1:52 PM 71.1 °F - 61.0 °F 70% 29.95 in 10.0 mi WSW 17.3 mph 23.0 mph N/A   Overcast
2:52 PM 71.1 °F - 59.0 °F 66% 29.96 in 10.0 mi West 13.8 mph 21.9 mph N/A   Overcast
3:52 PM 70.0 °F - 57.0 °F 63% 29.98 in 10.0 mi West 16.1 mph - N/A   Overcast
4:52 PM 68.0 °F - 55.0 °F 63% 30.02 in 10.0 mi North 19.6 mph 24.2 mph N/A   Partly Cloudy
5:11 PM 55.9 °F - 48.0 °F 75% 30.05 in 10.0 mi NNE 19.6 mph 29.9 mph N/A   Mostly Cloudy
5:52 PM 53.1 °F - 45.0 °F 74% 30.08 in 10.0 mi NNE 15.0 mph - N/A   Scattered Clouds
6:52 PM 50.0 °F - 44.1 °F 80% 30.12 in 10.0 mi NE 12.7 mph - N/A   Mostly Cloudy
7:52 PM 48.9 °F - 39.9 °F 71% 30.16 in 10.0 mi NE 20.7 mph 28.8 mph N/A   Overcast
8:52 PM 46.9 °F - 39.9 °F 77% 30.19 in 10.0 mi NE 15.0 mph - N/A   Overcast
9:52 PM 46.0 °F 40.6 °F 39.9 °F 79% 30.21 in 10.0 mi NE 11.5 mph - N/A   Mostly Cloudy
10:52 PM 45.0 °F 38.5 °F 39.0 °F 80% 30.21 in 10.0 mi NE 13.8 mph - N/A   Mostly Cloudy
11:52 PM 43.0 °F 37.2 °F 37.9 °F 82% 30.23 in 10.0 mi ENE 10.4 mph - N/A   Scattered Clouds